All
Shellharbour Hospital Airport YXSH Weather
There is no TAF data available at YXSH. Showing TAF data for YSHL (3 mi W).
WOL Terminal Area Forecast (no data for YXSH)
| Here is the undecoded forecast: 2026/05/06 01:04 YSHL 060104Z 0602/0614 04008KT CAVOK FM060900 27005KT CAVOK RMK FM061300 MOD TURB BLW 5000FT T 21 21 17 14 Q 1019 1016 1016 1016 |
There is no METAR data available at YXSH. Showing METAR data for YSHL (3 mi W).
Recent WOL METAR history (no data for YXSH)
| Date | Time (AEST) | Flight Rules | Wind Dir. | Speed | Type | Height AGL (ft) | Visibility | Temp (°C) | Temp (°F) | Dew Point (°C) | Dew Point (°F) | Rel. Humid. | Pressure | Density Altitude | Remarks |
|---|---|---|---|---|---|---|---|---|---|---|---|---|---|---|---|
| 06-May | 01:00PM | VFR | 50° | 7 kt | 10000 meters | 21° | 69° | 12° | 53° | 56% | 1017 mb | 639 ft | |||
| 06-May | 12:00PM | VFR | 60° | 7 kt | 10000 meters | 22° | 71° | 13° | 55° | 57% | 1018 mb | 729 ft | |||
| 06-May | 11:00AM | VFR | 70° | 6 kt | 10000 meters | 22° | 71° | 12° | 53° | 53% | 1020 mb | 670 ft | |||
| 06-May | 10:00AM | VFR | 50° | 5 kt | 10000 meters | 21° | 69° | 11° | 51° | 53% | 1020 mb | 550 ft | |||
| 06-May | 09:00AM | VFR | Calm | Scattered |
3,900 |
10000 meters | 18° | 64° | 12° | 53° | 68% | 1020 mb | 190 ft | ||
| 06-May | 08:00AM | VFR | Calm | 10000 meters | 12° | 53° | 11° | 51° | 94% | 1020 mb | -530 ft | ||||
| 06-May | 07:00AM | VFR | 300° | 1 kt | 10000 meters | 9° | 48° | 8° | 46° | 93% | 1020 mb | -890 ft | |||
| 06-May | 06:00AM | VFR | Calm | 10000 meters | 8° | 46° | 7° | 44° | 93% | 1020 mb | -1,010 ft | ||||
| 06-May | 05:00AM | VFR | Calm | 10000 meters | 8° | 46° | 7° | 44° | 93% | 1020 mb | -1,010 ft | ||||
| 06-May | 04:00AM | VFR | Calm | 10000 meters | 9° | 48° | 8° | 46° | 93% | 1020 mb | -890 ft | ||||
| 06-May | 03:00AM | VFR | 260° | 4 kt | 10000 meters | 11° | 51° | 8° | 46° | 82% | 1020 mb | -650 ft | |||
| 06-May | 02:00AM | VFR | 260° | 4 kt | 10000 meters | 11° | 51° | 7° | 44° | 76% | 1020 mb | -650 ft | |||
| 06-May | 01:00AM | VFR | 250° | 5 kt | 10000 meters | 12° | 53° | 8° | 46° | 76% | 1021 mb | -559 ft | |||
| 06-May | 12:00AM | VFR | 270° | 5 kt | 10000 meters | 12° | 53° | 8° | 46° | 76% | 1021 mb | -559 ft | |||
| 05-May | 11:00PM | VFR | 240° | 4 kt | 10000 meters | 12° | 53° | 8° | 46° | 76% | 1021 mb | -559 ft | |||
| 05-May | 10:00PM | VFR | 270° | 3 kt | 10000 meters | 11° | 51° | 9° | 48° | 87% | 1021 mb | -679 ft | |||
| 05-May | 09:00PM | VFR | 290° | 1 kt | 10000 meters | 12° | 53° | 10° | 50° | 88% | 1021 mb | -559 ft | |||
| 05-May | 08:00PM | VFR | 280° | 4 kt | 10000 meters | 12° | 53° | 9° | 48° | 82% | 1020 mb | -530 ft | |||
| 05-May | 07:00PM | VFR | 270° | 5 kt | 10000 meters | 13° | 55° | 10° | 50° | 82% | 1020 mb | -410 ft | |||
| 05-May | 06:00PM | VFR | 290° | 7 kt | 10000 meters | 15° | 59° | 10° | 50° | 72% | 1019 mb | -140 ft | |||
| 05-May | 05:00PM | VFR | 110° | 4 kt | 10000 meters | 20° | 68° | 10° | 50° | 53% | 1018 mb | 489 ft | |||
| 05-May | 04:00PM | VFR | 280° | 7 kt | 10000 meters | 23° | 73° | 8° | 46° | 38% | 1017 mb | 879 ft | |||
| 05-May | 03:00PM | VFR | 210° | 5 kt | 10000 meters | 23° | 73° | 7° | 44° | 36% | 1016 mb | 909 ft | |||
| 05-May | 02:00PM | VFR | 250° | 10 kt | 10000 meters | 22° | 71° | 7° | 44° | 38% | 1016 mb | 789 ft |
Login
| Your browser is unsupported. upgrade your browser |
